User: anonymous   Login
Location: Unspecified
(0.0000°N, 0.0000°E)
Time: 00:03:34
(UTC+00:00)
Language:

STARLINK-1037 - Orbit

View from above orbital plane
View from above orbital plane
View from above satellite
View from above satellite

Ground track
Ground track

The orbit data is extracted from the following two-line orbital elements,

1 44742U 19074AF  20056.92085403 -.00001632  00000-0 -92802-4 0  9995
2 44742  53.0010  19.7186 0002225  69.4125 290.7102 15.05588960 16502
Epoch (UTC): 25 February 2020 22:06:01
Eccentricity: 0.0002225
inclination: 53.0010°
perigee height: 548 km
apogee height: 551 km
right ascension of ascending node: 19.7186°
argument of perigee: 69.4125°
revolutions per day: 15.05588960
mean anomaly at epoch: 290.7102°
orbit number at epoch: 1650

The dashed part of the orbit path shows where the satellite is in the earth's shadow,  

DLR